METEOR 2-20 DEB

Satellite information

Favourite Embed

Satellite Type and Status

DEBRISIN ORBIT

Key statistics

Satellite METEOR 2-20 DEB at a glance.

Uptime

12763

Days in orbit

Revolutions

≈ 13.9

Per day

Orbit

LEO

Low Earth Orbit

Inclination

82.5

Latest

Satellite identification and parameters

Extended collection of information and parameters for METEOR 2-20 DEB.

Object identification

Identified? True

Debris? True

Object name: METEOR 2-20 DEB

International designator: 1990-086G

Object number (NORAD): 59997

Object ID (CCSDS): 59997

Country: COMMONWEALTH OF INDEPENDENT STATES (CIS)

Current information (Y/N): Y

RCS size: SMALL

Orbital parameters

Period: 103.651 minutes

Inclination: 82.5183 deg

SMA: 7309.32 km

Apoapsis: 947.299 km

Periapsis: 915.07 km

RAAN: 61.3887 deg

Eccentricy: 0.00220464

Argument of periapsis: 64.9575 deg

Mean anomaly: 295.3873 deg

Mean motion: 13.89272109 rev/day

Mean motion (dot): 0.00002573 rev/day2

B* drag term: 0.0020986799 1/REarth

Two-line elements (TLE)

Creation date: Sept. 7, 2025, 3:09 a.m.

Reference frame: TEME

Reference center: EARTH

Epoch: Sept. 6, 2025, 11 a.m. UTC

TLE line 0: 0 METEOR 2-20 DEB

TLE line 1: 1 59997U 90086G 25249.45886214 .00002573 00000-0 20987-2 0 9997

TLE line 2: 2 59997 82.5183 61.3887 0022046 64.9575 295.3873 13.89272109 95699

Live tracking on map

Real-time ground track for satellite METEOR 2-20 DEB.

In-orbit conjunctions

A list of the most updated potential collisions computed for object METEOR 2-20 DEB.

Target Orbit TCA Probability of collision Miss distance Type
FENGYUN 1C DEB SSO 2025-02-25 11:13:19 0.0001773782 159.0 (m) DEBRIS
METEOR 2-12 LEO 2024-10-09 09:01:58 0.0005995511 119.0 (m) PAYLOAD
COSMOS 2251 DEB LEO 2024-09-06 00:52:06 0.0001321266 437.0 (m) DEBRIS

Associated space launch

Second generation soviet meteorological satellite

METEOR 2-20 DEB was lifted into orbit during the mission ‘Tsiklon-3 | Meteor-2 20’, on board a Tsiklon-3 space rocket.

The launch took place on Sept. 28, 1990, 7:30 a.m. from 32/1.

For more information about the launch, click the button.

Launch to space Tsiklon-3 | Meteor-2 20
Tsiklon-3 | Meteor-2 20

Agency: N/A

Status: Launch Successful

Launch date: Sept. 28, 1990, 7:30 a.m. UTC

Rocket: Tsiklon-3

Launch pad: 32/1

Location: Plesetsk Cosmodrome, Russian Federation

...

Latest news about this satellite

There are no fresh news available about this satellite. Check back as we update our databases every day.


Newsletter sign-up

Weekly statistics, charts and insights to help you stay on top of the space industry.